Weather History for Paducah, KY

Change the Weather History Date:

Saturday, October 25, 2014

  Actual Average Record
Temperature  
Mean Temperature 66 °F 56 °F  
Max Temperature 80 °F 68 °F 84 °F (1940)
Min Temperature 52 °F 44 °F 28 °F (1999)
Degree Days  
Heating Degree Days 0 9  
Month to date heating degree days 152 165  
Since 1 July heating degree days 173 204  
Cooling Degree Days 1 1  
Month to date cooling degree days 38 36  
Year to date cooling degree days 1711 1536  
Growing Degree Days 15 (Base 50)    
Moisture  
Dew Point 57 °F    
Average Humidity 76    
Maximum Humidity 100    
Minimum Humidity 51    
Precipitation  
Precipitation 0.00 in 0.12 in 1.96 in (1946)
Month to date precipitation 3.14 3.23  
Year to date precipitation 40.88 39.46  
Snow  
Snow 0.00 in 0.00 in 0.00 in (2002)
Month to date snowfall 0.0 0.1  
Since 1 July snowfall 0.0 0.1  
Since 1 September snowfall 0.0 0.1  
Snow Depth 0.00 in    
Sea Level Pressure  
Sea Level Pressure 30.01 in    
Wind  
Wind Speed 5 mph (WSW)    
Max Wind Speed 12 mph    
Max Gust Speed 14 mph    
Visibility 8 miles    
Events      
T = Trace of Precipitation, MM = Missing Value Source: NWS Daily Summary

Daily Weather History Graph

Daily Weather History Graph

Search for Another Location

Airport:

Trip Planner

Search our weather history database for the weather conditions in past years. The results will help you decide how hot, cold, wet, or windy it might be!

Date:

Astronomy

Oct. 25, 2014 Rise Set
Actual Time 7:12 AM CDT 6:05 PM CDT
Civil Twilight 6:45 AM CDT 6:31 PM CDT
Nautical Twilight 6:15 AM CDT 7:02 PM CDT
Astronomical Twilight 5:45 AM CDT 7:32 PM CDT
Moon 8:49 AM CDT 7:30 PM CDT
Length of Visible Light 11h 46m
Length of Day
10h 53m
Waxing Crescent, 3% of the Moon is Illuminated
Oct 25
Waxing Crescent
Oct 30
First Quarter
Nov 6
Full
Nov 14
Last Quarter
Nov 22
New

Hourly Weather History & Observations

Time (CDT) Temp. Heat Index Dew Point Humidity Pressure Visibility Wind Dir Wind Speed Gust Speed Precip Events Conditions
12:53 AM 55.9 °F - 52.0 °F 87% 30.04 in 8.0 mi SSW 4.6 mph - N/A   Clear
1:53 AM 53.1 °F - 50.0 °F 89% 30.04 in 7.0 mi Calm Calm - N/A   Clear
2:53 AM 55.9 °F - 52.0 °F 87% 30.04 in 8.0 mi SSW 4.6 mph - N/A   Scattered Clouds
3:53 AM 55.9 °F - 52.0 °F 87% 30.01 in 7.0 mi South 6.9 mph - N/A   Partly Cloudy
4:53 AM 57.9 °F - 53.1 °F 84% 30.02 in 8.0 mi SSW 8.1 mph - N/A   Overcast
5:53 AM 57.0 °F - 53.1 °F 87% 30.03 in 8.0 mi Variable 3.5 mph - N/A   Clear
6:53 AM 57.0 °F - 54.0 °F 89% 30.03 in 8.0 mi SW 6.9 mph - N/A   Overcast
7:53 AM 55.9 °F - 53.1 °F 90% 30.04 in 5.0 mi Calm Calm - N/A   Partly Cloudy
8:53 AM 61.0 °F - 55.9 °F 83% 30.04 in 8.0 mi WSW 9.2 mph - N/A   Clear
9:53 AM 66.9 °F - 59.0 °F 76% 30.05 in 10.0 mi West 9.2 mph - N/A   Clear
10:53 AM 71.1 °F - 60.1 °F 68% 30.04 in 10.0 mi NNW 5.8 mph - N/A   Partly Cloudy
11:53 AM 73.9 °F - 61.0 °F 64% 30.03 in 10.0 mi Calm Calm - N/A   Clear
12:53 PM 75.9 °F - 62.1 °F 62% 30.01 in 10.0 mi Variable 4.6 mph - N/A   Clear
1:53 PM 79.0 °F - 63.0 °F 58% 29.99 in 9.0 mi WSW 9.2 mph - N/A   Clear
2:53 PM 79.0 °F - 63.0 °F 58% 29.99 in 10.0 mi NW 4.6 mph - N/A   Clear
3:53 PM 80.1 °F 81.1 °F 61.0 °F 52% 29.98 in 10.0 mi WNW 6.9 mph - N/A   Clear
4:53 PM 79.0 °F - 60.1 °F 52% 29.99 in 10.0 mi West 5.8 mph - N/A   Clear
5:53 PM 73.9 °F - 61.0 °F 64% 29.99 in 10.0 mi Calm Calm - N/A   Clear
6:53 PM 64.0 °F - 59.0 °F 84% 30.00 in 10.0 mi SW 3.5 mph - N/A   Clear
7:53 PM 60.1 °F - 57.0 °F 90% 30.01 in 8.0 mi SW 3.5 mph - N/A   Clear
8:53 PM 57.0 °F - 55.9 °F 96% 30.00 in 7.0 mi SW 4.6 mph - N/A   Clear
9:53 PM 57.0 °F - 55.9 °F 96% 30.01 in 7.0 mi SW 3.5 mph - N/A   Clear
10:53 PM 55.9 °F - 55.0 °F 97% 30.00 in 2.0 mi WSW 3.5 mph - N/A   Clear
11:06 PM 57.0 °F - 55.9 °F 96% 30.00 in 5.0 mi West 3.5 mph - N/A   Clear
11:31 PM 55.0 °F - 53.1 °F 93% 30.00 in 2.0 mi Calm Calm - N/A   Clear
11:40 PM 55.0 °F - 54.0 °F 96% 30.00 in 0.8 mi Calm Calm - N/A   Clear
11:53 PM 55.9 °F - 55.0 °F 97% 29.99 in 0.8 mi Calm Calm - N/A   Mist